Location: Wien
(48.2082°N, 16.3738°E)
Time: 12:21:12
(UTC+02:00)

Tiros 1 despin weight - Pass Details

Date: 19 September 2024
Orbit: 573 x 615 km, 48.2° (Epoch: 06 October)

Event Time Altitude Azimuth Distance (km) Brightness Sun altitude
Rises 04:41:59 0° 261° (W) 2,869 - -19.4°
Reaches altitude 10° 04:44:17 10° 261° (W) 1,970 - -19.0°
Exits shadow 04:47:14 40° 260° (W) 904 ? -18.6°
Maximum altitude 04:48:50 87° 177° (S) 623 ? -18.3°
Drops below altitude 10° 04:53:24 10° 85° (E) 1,982 ? -17.6°
Sets 04:55:43 0° 85° (E) 2,888 ? -17.3°
